[[{"header":{"parameterUnit":"m.s-1","parameterCategory":1,"la1":30.2991,"la2":30.254,"lo1":-89.0895,"lo2":-89.0444,"dy":0.0017,"dx":0.0017,"nx":28,"ny":28,"refTime":"2026-01-02T09:00:00:Z","depth":0,"parameterNumber":2,"parameterNumberName":"U-component_of_WINDS"},"data":[0,0,0,0,0,0,0,0,0,0,0,0,0,0,0,0,0,0,0,0,0,0,0,0,0,0,0,0,0,0,0,0,0,0,0,0,0,0,0,0,0,0,0,0,0,0,0,0,0,0,0,0,0,0,0,0,0,0,0.4964,0.4965,0,0.4995,0.4996,0.4996,0.4975,0.4974,0.4973,0.4972,0.5007,0.5008,0.501,0,0,0,0,0,0,0,0,0,0,0,0,0,0.4889,0.4891,0.4964,0.4965,0.4965,0.4995,0.4996,0.4996,0.4975,0.4974,0.4973,0.4972,0.5006,0.5008,0.501,0,0,0,0,0,0,0,0,0,0,0,0,0,0.4921,0.4891,0.4964,0.4958,0.4958,0.4995,0.4996,0.4996,0.4976,0.4974,0.4973,0.4971,0.5005,0.5008,0.5011,0.5056,0,0,0.5019,0.502,0,0,0,0,0,0,0,0,0.492,0.4924,0.4959,0.4959,0.4959,0.498,0.4982,0.5016,0.4976,0.4969,0.4972,0.4971,0.4999,0.5002,0.5011,0.5058,0.5059,0.5019,0.5021,0.5022,0.5023,0,0,0,0,0,0,0,0.4917,0.4923,0.4977,0.4959,0.4959,0.4955,0.4958,0.4988,0.4992,0.4969,0.4968,0.4972,0.4999,0.5009,0.5012,0.506,0.5019,0.5021,0.5023,0.5024,0.5147,0.5148,0,0,0,0,0,0,0.4915,0.4921,0.4976,0.4978,0.4935,0.4957,0.4961,0.4975,0.4991,0.4993,0.4973,0.4971,0.5005,0.5009,0.5013,0.5069,0.5022,0.5024,0.5026,0.5145,0.5147,0.5149,0,0,0,0,0,0,0.4914,0.492,0.4974,0.4949,0.4955,0.496,0.4976,0.4976,0.4986,0.4994,0.4995,0.4982,0.5004,0.5009,0.5046,0.507,0.5026,0.5028,0.5143,0.5146,0.5148,0.518,0,0,0,0,0,0,0.4912,0.492,0.4937,0.4949,0.4957,0.5006,0.4977,0.4978,0.499,0.4988,0.5003,0.5004,0.5003,0.5042,0.5048,0.5073,0.503,0.5141,0.5144,0.5147,0.5177,0.5183,0.5188,0,0,0,0,0,0.4909,0.4945,0.4938,0.4944,0.4978,0.5007,0.5012,0.5009,0.4992,0.501,0.5015,0.5004,0.5066,0.5046,0.5053,0.5078,0.514,0.5143,0.5147,0.5174,0.5182,0.5188,0,0,0,0,0,0,0.4935,0.4946,0.4939,0.4979,0.4992,0.5004,0.5026,0.5017,0.5036,0.5033,0.5029,0.5033,0.5071,0.5078,0.5056,0.5124,0.51,0.5105,0.5118,0.5126,0.5131,0.513,0.5033,0,0,0,0,0,0.4946,0.4968,0.4976,0.5011,0.5018,0.5021,0.5034,0.503,0.5044,0.505,0.5058,0.5073,0.5096,0.5111,0.5132,0.5177,0.5181,0.5198,0.5204,0.5209,0.5214,0.524,0.5248,0.5161,0.5161,0.5161,0,0,0.4967,0.4976,0.4991,0.5017,0.5027,0.5051,0.5026,0.5052,0.5071,0.5054,0.5089,0.5096,0.5112,0.5154,0.5172,0.5161,0.5239,0.5213,0.5217,0.522,0.5245,0.5253,0.526,0.5163,0.5163,0.5163,0,0,0.502,0.5028,0.5059,0.5069,0.5084,0.5086,0.5093,0.5106,0.5109,0.5144,0.5133,0.5155,0.5194,0.5207,0.5218,0.5276,0.5267,0.5283,0.5314,0.534,0.5347,0.5353,0.5375,0.5383,0.5288,0.5288,0.5288,0,0.5045,0.5081,0.5076,0.5103,0.5116,0.5101,0.5133,0.5144,0.5165,0.5175,0.5161,0.5211,0.522,0.5265,0.5279,0.5288,0.5298,0.5282,0.5346,0.5352,0.5357,0.5379,0.5387,0.529,0.5289,0.5289,0.5289,0,0.5112,0.5137,0.516,0.5181,0.5196,0.5225,0.5226,0.5242,0.5237,0.524,0.5277,0.5288,0.5312,0.5322,0.5318,0.5367,0.536,0.5346,0.5322,0.5368,0.5388,0.5396,0.5292,0.5292,0.5291,0.5291,0,0,0.5182,0.52,0.5209,0.5219,0.5235,0.5254,0.5284,0.5306,0.5321,0.5336,0.5362,0.5395,0.5383,0.5396,0.5393,0.5415,0.5462,0.5399,0.5399,0.5412,0.5519,0.553,0.554,0.5456,0.5457,0.5458,0.5518,0,0.5237,0.5287,0.5284,0.5332,0.5356,0.5343,0.5368,0.5382,0.5386,0.5407,0.5411,0.5436,0.5417,0.5425,0.5446,0.5452,0.5484,0.5448,0.5481,0.5482,0.5479,0.555,0.5562,0.5618,0.5526,0.5527,0.5528,0,0.5307,0.5325,0.5375,0.5389,0.5399,0.5422,0.5443,0.5463,0.5478,0.548,0.5494,0.5488,0.5519,0.5494,0.5537,0.5512,0.5526,0.5531,0.5533,0.5537,0.5509,0.5558,0.5635,0.5644,0.554,0.5539,0.5538,0,0.5355,0.5392,0.5427,0.5436,0.5452,0.5469,0.5476,0.549,0.5504,0.5523,0.5533,0.5555,0.5567,0.5585,0.5586,0.5567,0.563,0.5604,0.5634,0.5634,0.5649,0.5648,0.5731,0.5655,0.5655,0.5655,0.5655,0,0.5417,0.5449,0.5449,0.5471,0.5507,0.5503,0.5538,0.5544,0.5557,0.558,0.557,0.5593,0.5591,0.5614,0.5615,0.5652,0.5657,0.566,0.566,0.5662,0.5662,0.5672,0.5669,0.5657,0.5657,0.5656,0.5656,0,0.5478,0.5479,0.5517,0.5529,0.5532,0.5558,0.5569,0.5591,0.5593,0.5624,0.5631,0.5636,0.5663,0.5664,0.5695,0.5696,0.5741,0.5736,0.5736,0.5736,0.5766,0.5764,0.5859,0.5873,0.5786,0.5787,0.5788,0,0.5518,0.5542,0.5557,0.5572,0.558,0.5604,0.5619,0.5616,0.5632,0.5652,0.5671,0.5697,0.5717,0.5761,0.5768,0.5792,0.5789,0.5821,0.5793,0.5794,0.5792,0.5791,0.5794,0.5827,0.5828,0.5829,0.5829,0,0.559,0.5589,0.561,0.5632,0.565,0.5667,0.5683,0.5696,0.5695,0.5714,0.5741,0.5757,0.5789,0.5815,0.5839,0.5847,0.5839,0.5838,0.5846,0.5849,0.5849,0.5851,0.5753,0.5836,0.5835,0.5835,0.5835,0.5834,0.5642,0.5664,0.5678,0.5702,0.5714,0.5729,0.575,0.5756,0.5778,0.5804,0.5801,0.5831,0.5847,0.5878,0.5889,0.5913,0.5903,0.5914,0.5918,0.5921,0.5925,0.5844,0.5917,0.5917,0.5917,0.5917,0.5917,0,0.5715,0.5724,0.5746,0.5769,0.5788,0.5777,0.5794,0.5812,0.5839,0.5854,0.5874,0.5906,0.5932,0.5941,0.5966,0.5985,0.5981,0.5991,0.5991,0.5994,0.5932,0.5923,0.5994,0.5994,0.5994,0.5994,0.5994,0.5994,0.5755,0.5792,0.5793,0.5835,0.5844,0.5873,0.5884,0.5899,0.5911,0.5947,0.5968,0.5974,0.5987,0.6013,0.6037,0.6039,0.6049,0.6062,0.6062,0.6005,0.5998,0.599,0.5982,0.6063,0.6063,0.6122,0.6122,0.6123]},{"header":{"parameterUnit":"m.s-1","parameterCategory":1,"la1":30.2991,"la2":30.254,"lo1":-89.0895,"lo2":-89.0444,"dy":0.0017,"dx":0.0017,"nx":28,"ny":28,"refTime":"2026-01-02T09:00:00:Z","depth":0,"parameterNumber":3,"parameterNumberName":"V-component_of_WINDS"},"data":[0,0,0,0,0,0,0,0,0,0,0,0,0,0,0,0,0,0,0,0,0,0,0,0,0,0,0,0,0,0,0,0,0,0,0,0,0,0,0,0,0,0,0,0,0,0,0,0,0,0,0,0,0,0,0,0,0,0,5.9548,5.9548,0,5.9609,5.961,5.9611,5.958,5.9579,5.9577,5.9576,5.9634,5.9637,5.964,0,0,0,0,0,0,0,0,0,0,0,0,0,5.9402,5.9405,5.9548,5.9548,5.9549,5.9609,5.961,5.9611,5.9581,5.9579,5.9577,5.9575,5.9633,5.9637,5.9641,0,0,0,0,0,0,0,0,0,0,0,0,0,5.9464,5.9406,5.9548,5.9542,5.9542,5.9609,5.961,5.9611,5.9581,5.9579,5.9576,5.9574,5.9632,5.9637,5.9641,5.9717,0,0,5.9655,5.9657,0,0,0,0,0,0,0,0,5.9461,5.947,5.9542,5.9542,5.9542,5.9585,5.958,5.9646,5.9582,5.9566,5.9576,5.9573,5.962,5.9625,5.9642,5.9719,5.9722,5.9655,5.9658,5.966,5.9661,0,0,0,0,0,0,0,5.9457,5.9467,5.9572,5.9543,5.9543,5.9535,5.9541,5.9592,5.9605,5.9567,5.9565,5.9573,5.9619,5.9637,5.9643,5.9723,5.9655,5.9659,5.9662,5.9664,5.9868,5.9871,0,0,0,0,0,0,5.9453,5.9463,5.957,5.9574,5.9495,5.954,5.9547,5.9573,5.9604,5.9607,5.9575,5.9571,5.9631,5.9637,5.9645,5.9738,5.966,5.9664,5.9667,5.9866,5.9869,5.9872,0,0,0,0,0,0,5.945,5.9463,5.9567,5.9518,5.9531,5.9545,5.9575,5.9576,5.9594,5.9611,5.9612,5.9591,5.9629,5.9638,5.97,5.9739,5.9666,5.9671,5.9862,5.9867,5.987,5.9922,0,0,0,0,0,0,5.9446,5.9462,5.9491,5.9519,5.9534,5.9623,5.9577,5.9579,5.9602,5.9598,5.9626,5.9629,5.9628,5.9693,5.9704,5.9744,5.9674,5.9859,5.9864,5.9869,5.9917,5.9928,5.9937,0,0,0,0,0,5.9441,5.9502,5.9493,5.9506,5.9571,5.9625,5.9633,5.9632,5.9606,5.9635,5.9646,5.9628,5.9733,5.97,5.9712,5.9754,5.9857,5.9863,5.9869,5.9913,5.9926,5.9936,0,0,0,0,0,0,5.9476,5.9505,5.9496,5.9567,5.9594,5.962,5.9657,5.9645,5.9679,5.9673,5.967,5.9676,5.9741,5.9753,5.9716,5.983,5.979,5.9799,5.982,5.9832,5.9842,5.9838,5.9678,0,0,0,0,0,5.9492,5.9535,5.9557,5.9619,5.9633,5.9643,5.9666,5.9664,5.969,5.9701,5.9716,5.9742,5.9781,5.9807,5.9843,5.9918,5.9925,5.9953,5.9963,5.9971,5.9979,6.0022,6.0035,5.9892,5.9892,5.9892,0,0,5.9526,5.9547,5.9574,5.9627,5.9647,5.9691,5.9652,5.97,5.9732,5.9708,5.9768,5.978,5.9809,5.9879,5.991,5.989,6.002,5.9978,5.9984,5.9988,6.003,6.0043,6.0055,5.9896,5.9895,5.9894,0,0,5.961,5.963,5.9685,5.9707,5.9739,5.9746,5.9759,5.9787,5.9795,5.9856,5.9839,5.9877,5.9944,5.9966,5.9986,6.0081,6.0066,6.0093,6.0144,6.0186,6.0198,6.0208,6.0244,6.0257,6.0101,6.0101,6.0101,0,5.9648,5.9715,5.9714,5.9764,5.9789,5.977,5.9826,5.9847,5.9889,5.9906,5.9884,5.9969,5.9987,6.0063,6.0086,6.0102,6.0118,6.009,6.0196,6.0206,6.0216,6.0251,6.0264,6.0104,6.0104,6.0103,6.0103,0,5.9761,5.9808,5.9848,5.9892,5.992,5.9972,5.998,6.0008,6.0003,6.0012,6.0075,6.0096,6.0138,6.0155,6.015,6.0231,6.0219,6.0197,6.0157,6.0233,6.0266,6.0279,6.0109,6.0107,6.0106,6.0106,0,0,5.9869,5.9914,5.9929,5.995,5.9985,6.0021,6.0072,6.0115,6.0141,6.0171,6.0215,6.0273,6.0254,6.0276,6.0273,6.031,6.0388,6.0284,6.0284,6.0304,6.0482,6.05,6.0515,6.0378,6.038,6.0382,6.048,0,5.9958,6.0052,6.0053,6.0139,6.0183,6.0167,6.0212,6.0239,6.0249,6.0287,6.0297,6.0339,6.0309,6.0323,6.0359,6.0371,6.0424,6.0363,6.042,6.0422,6.0415,6.0532,6.0551,6.0642,6.0493,6.0495,6.0496,0,6.0075,6.0112,6.0202,6.0234,6.0252,6.0293,6.0334,6.0371,6.0401,6.0405,6.0432,6.0424,6.0477,6.0436,6.051,6.0469,6.0491,6.0501,6.0504,6.0511,6.0465,6.0544,6.0671,6.0686,6.0516,6.0514,6.0513,0,6.0148,6.022,6.0284,6.0302,6.0339,6.0369,6.0386,6.0414,6.044,6.0475,6.0493,6.0532,6.0555,6.0586,6.0589,6.0558,6.0664,6.0622,6.067,6.0671,6.0695,6.0694,6.083,6.0706,6.0706,6.0705,6.0705,0,6.0249,6.0306,6.0318,6.0358,6.0421,6.0422,6.0485,6.0499,6.0524,6.0566,6.0553,6.0592,6.0593,6.0634,6.0636,6.0698,6.0707,6.0713,6.0714,6.0716,6.0716,6.0732,6.0727,6.0709,6.0708,6.0708,6.0707,0,6.0343,6.0353,6.0422,6.0453,6.0462,6.0508,6.0534,6.0572,6.0581,6.0635,6.0647,6.0661,6.0708,6.0714,6.0768,6.077,6.0846,6.0838,6.0837,6.0837,6.0886,6.0882,6.1039,6.1061,6.092,6.0922,6.0923,0,6.0407,6.0451,6.0488,6.0516,6.0536,6.0581,6.0609,6.0611,6.0641,6.0679,6.0713,6.0759,6.0797,6.0873,6.0887,6.0929,6.0924,6.0976,6.093,6.0932,6.0928,6.0926,6.0932,6.0986,6.0987,6.0988,6.0989,0,6.0522,6.0526,6.0568,6.0612,6.0647,6.0681,6.0713,6.0737,6.0743,6.0777,6.0827,6.0856,6.0913,6.096,6.1002,6.1018,6.1006,6.1004,6.1018,6.1021,6.102,6.1024,6.0864,6.1,6.0999,6.0998,6.0998,6.0997,6.0605,6.0645,6.0678,6.0725,6.075,6.0782,6.082,6.0835,6.0877,6.0925,6.0923,6.0978,6.1008,6.1063,6.1083,6.1126,6.1108,6.1128,6.1133,6.1139,6.1145,6.1012,6.1133,6.1132,6.1132,6.1132,6.1132,0,6.0722,6.0743,6.0787,6.0834,6.0872,6.0858,6.0894,6.0926,6.0975,6.1005,6.1043,6.1101,6.1146,6.1165,6.121,6.1241,6.1237,6.1253,6.1252,6.1256,6.1156,6.1141,6.1256,6.1256,6.1256,6.1256,6.1256,6.1256,6.0788,6.0855,6.0863,6.0942,6.0962,6.1018,6.104,6.1068,6.1093,6.1159,6.1197,6.121,6.1236,6.1283,6.1324,6.1328,6.1347,6.1366,6.1368,6.1275,6.1263,6.1251,6.1237,6.1369,6.137,6.1465,6.1466,6.1466]}]]